• In Österreich
  • Länderverzeichnis
  • Für 7 Tage
  • Wassertemperatur
  • Satellitenkarten
  • Wetterkarte
  • News
  • Widgets
  • user-avatar
    Anmelden

    Stündliche Wetter Chinsali

    Heute, 16 August, Donnerstag

    Zeit Temperatur Niederschläge Wind Luftdruck Luftfeuchtigkeit
    00:00 +17°C° 0 mm 3 m/S 649 mmHg 59%
    01:00 +16°C° 0 mm 2 m/S 649 mmHg 64%
    02:00 +15°C° 0 mm 2 m/S 648 mmHg 68%
    03:00 +14°C° 0 mm 2 m/S 648 mmHg 71%
    04:00 +14°C° 0 mm 2 m/S 648 mmHg 74%
    05:00 +13°C° 0 mm 2 m/S 648 mmHg 77%
    06:00 +15°C° 0 mm 2 m/S 649 mmHg 69%
    07:00 +17°C° 0 mm 2 m/S 649 mmHg 61%
    08:00 +19°C° 0 mm 3 m/S 650 mmHg 53%
    09:00 +21°C° 0 mm 3 m/S 651 mmHg 45%
    10:00 +25°C° 0 mm 3 m/S 651 mmHg 37%
    11:00 +27°C° 0 mm 3 m/S 652 mmHg 29%
    12:00 +28°C° 0 mm 3 m/S 651 mmHg 27%
    13:00 +29°C° 0 mm 3 m/S 651 mmHg 24%
    14:00 +30°C° 0 mm 3 m/S 650 mmHg 21%
    15:00 +29°C° 0 mm 3 m/S 650 mmHg 23%
    16:00 +29°C° 0 mm 3 m/S 649 mmHg 24%
    17:00 +28°C° 0 mm 3 m/S 649 mmHg 25%
    18:00 +26°C° 0 mm 3 m/S 649 mmHg 29%
    19:00 +22°C° 0 mm 3 m/S 649 mmHg 32%
    20:00 +20°C° 0 mm 3 m/S 649 mmHg 36%
    21:00 +19°C° 0 mm 3 m/S 649 mmHg 40%
    22:00 +18°C° 0 mm 3 m/S 649 mmHg 45%
    23:00 +17°C° 0 mm 3 m/S 649 mmHg 49%

    Morgen, 17 August, Freitag

    Zeit Temperatur Niederschläge Wind Luftdruck Luftfeuchtigkeit
    00:00 +17°C° 0 mm 2 m/S 648 mmHg 52%
    01:00 +16°C° 0 mm 2 m/S 648 mmHg 56%
    02:00 +15°C° 0 mm 2 m/S 648 mmHg 60%
    03:00 +15°C° 0 mm 2 m/S 647 mmHg 63%
    04:00 +14°C° 0 mm 2 m/S 647 mmHg 65%
    05:00 +14°C° 0 mm 2 m/S 647 mmHg 68%
    06:00 +16°C° 0 mm 2 m/S 648 mmHg 62%
    07:00 +18°C° 0 mm 3 m/S 649 mmHg 55%
    08:00 +19°C° 0 mm 3 m/S 650 mmHg 49%
    09:00 +22°C° 0 mm 3 m/S 650 mmHg 41%
    10:00 +26°C° 0 mm 3 m/S 651 mmHg 32%
    11:00 +28°C° 0 mm 3 m/S 651 mmHg 24%
    12:00 +29°C° 0 mm 3 m/S 651 mmHg 22%
    13:00 +30°C° 0 mm 3 m/S 650 mmHg 19%
    14:00 +31°C° 0 mm 3 m/S 649 mmHg 17%
    15:00 +30°C° 0 mm 3 m/S 649 mmHg 19%
    16:00 +29°C° 0 mm 2 m/S 648 mmHg 20%
    17:00 +28°C° 0 mm 2 m/S 648 mmHg 21%
    18:00 +26°C° 0 mm 3 m/S 648 mmHg 25%
    19:00 +24°C° 0 mm 3 m/S 648 mmHg 28%
    20:00 +20°C° 0 mm 3 m/S 648 mmHg 32%
    21:00 +20°C° 0 mm 3 m/S 648 mmHg 36%
    22:00 +19°C° 0 mm 3 m/S 648 mmHg 41%
    23:00 +18°C° 0 mm 3 m/S 648 mmHg 45%

    übermorgen, 18 August, Samstag

    Zeit Temperatur Niederschläge Wind Luftdruck Luftfeuchtigkeit
    00:00 +17°C° 0 mm 2 m/S 648 mmHg 49%
    01:00 +16°C° 0 mm 2 m/S 647 mmHg 52%
    02:00 +16°C° 0 mm 2 m/S 647 mmHg 56%
    03:00 +15°C° 0 mm 2 m/S 647 mmHg 58%
    04:00 +15°C° 0 mm 2 m/S 646 mmHg 59%
    05:00 +15°C° 0 mm 2 m/S 646 mmHg 61%
    06:00 +17°C° 0 mm 3 m/S 647 mmHg 55%
    07:00 +18°C° 0 mm 3 m/S 648 mmHg 50%
    08:00 +20°C° 0 mm 3 m/S 649 mmHg 44%
    09:00 +24°C° 0 mm 3 m/S 650 mmHg 37%
    10:00 +26°C° 0 mm 4 m/S 650 mmHg 29%
    11:00 +29°C° 0 mm 4 m/S 651 mmHg 21%
    12:00 +29°C° 0 mm 4 m/S 650 mmHg 20%
    13:00 +30°C° 0 mm 4 m/S 650 mmHg 18%
    14:00 +32°C° 0 mm 4 m/S 649 mmHg 17%
    15:00 +30°C° 0 mm 3 m/S 649 mmHg 18%
    16:00 +29°C° 0 mm 3 m/S 648 mmHg 20%
    17:00 +28°C° 0 mm 3 m/S 648 mmHg 21%
    18:00 +26°C° 0 mm 4 m/S 648 mmHg 24%
    19:00 +23°C° 0 mm 4 m/S 648 mmHg 26%
    20:00 +21°C° 0 mm 4 m/S 649 mmHg 29%
    21:00 +20°C° 0 mm 4 m/S 649 mmHg 34%
    22:00 +20°C° 0 mm 4 m/S 649 mmHg 39%
    23:00 +19°C° 0 mm 4 m/S 649 mmHg 44%

    19 August, Sonntag

    Zeit Temperatur Niederschläge Wind Luftdruck Luftfeuchtigkeit
    00:00 +18°C° 0 mm 3 m/S 648 mmHg 47%
    01:00 +18°C° 0 mm 3 m/S 648 mmHg 50%
    02:00 +17°C° 0 mm 3 m/S 647 mmHg 53%
    03:00 +17°C° 0 mm 3 m/S 647 mmHg 55%
    04:00 +16°C° 0 mm 3 m/S 647 mmHg 57%
    05:00 +16°C° 0 mm 2 m/S 647 mmHg 60%
    06:00 +17°C° 0 mm 3 m/S 648 mmHg 55%
    07:00 +18°C° 0 mm 4 m/S 649 mmHg 50%
    08:00 +20°C° 0 mm 5 m/S 650 mmHg 45%
    09:00 +22°C° 0 mm 5 m/S 650 mmHg 38%
    10:00 +25°C° 0 mm 4 m/S 650 mmHg 32%
    11:00 +27°C° 0 mm 4 m/S 651 mmHg 26%
    12:00 +28°C° 0 mm 4 m/S 650 mmHg 24%
    13:00 +29°C° 0 mm 4 m/S 649 mmHg 21%
    14:00 +30°C° 0 mm 3 m/S 649 mmHg 19%
    15:00 +29°C° 0 mm 3 m/S 648 mmHg 20%
    16:00 +29°C° 0 mm 3 m/S 648 mmHg 21%
    17:00 +28°C° 0 mm 3 m/S 648 mmHg 22%
    18:00 +26°C° 0 mm 3 m/S 648 mmHg 26%
    19:00 +23°C° 0 mm 4 m/S 648 mmHg 30%
    20:00 +21°C° 0 mm 4 m/S 649 mmHg 34%
    21:00 +20°C° 0 mm 4 m/S 649 mmHg 40%
    22:00 +19°C° 0 mm 4 m/S 649 mmHg 47%
    23:00 +19°C° 0 mm 4 m/S 649 mmHg 53%

    20 August, Montag

    Zeit Temperatur Niederschläge Wind Luftdruck Luftfeuchtigkeit
    00:00 +18°C° 0 mm 3 m/S 648 mmHg 56%
    01:00 +17°C° 0 mm 3 m/S 647 mmHg 60%
    02:00 +16°C° 0 mm 3 m/S 647 mmHg 63%
    03:00 +16°C° 0 mm 2 m/S 647 mmHg 65%
    04:00 +15°C° 0 mm 2 m/S 647 mmHg 67%
    05:00 +15°C° 0 mm 2 m/S 647 mmHg 69%
    06:00 +16°C° 0 mm 3 m/S 648 mmHg 64%
    07:00 +18°C° 0 mm 3 m/S 649 mmHg 58%
    08:00 +19°C° 0 mm 4 m/S 650 mmHg 52%
    09:00 +22°C° 0 mm 4 m/S 650 mmHg 45%
    10:00 +25°C° 0 mm 4 m/S 650 mmHg 38%
    11:00 +27°C° 0 mm 4 m/S 650 mmHg 31%
    12:00 +29°C° 0 mm 3 m/S 650 mmHg 28%
    13:00 +30°C° 0 mm 2 m/S 649 mmHg 24%
    14:00 +31°C° 0 mm 2 m/S 649 mmHg 21%
    15:00 +30°C° 0 mm 2 m/S 648 mmHg 22%
    16:00 +29°C° 0 mm 2 m/S 648 mmHg 23%
    17:00 +29°C° 0 mm 2 m/S 648 mmHg 24%
    18:00 +27°C° 0 mm 3 m/S 648 mmHg 28%
    19:00 +25°C° 0 mm 3 m/S 648 mmHg 32%
    20:00 +23°C° 0 mm 4 m/S 648 mmHg 35%
    21:00 +21°C° 0 mm 4 m/S 648 mmHg 41%
    22:00 +20°C° 0 mm 4 m/S 648 mmHg 46%
    23:00 +19°C° 0 mm 4 m/S 648 mmHg 52%

    21 August, Dienstag

    Zeit Temperatur Niederschläge Wind Luftdruck Luftfeuchtigkeit
    00:00 +19°C° 0 mm 3 m/S 647 mmHg 53%
    01:00 +18°C° 0 mm 3 m/S 647 mmHg 54%
    02:00 +17°C° 0 mm 3 m/S 647 mmHg 56%
    03:00 +17°C° 0 mm 3 m/S 647 mmHg 58%
    04:00 +16°C° 0 mm 2 m/S 647 mmHg 60%
    05:00 +16°C° 0 mm 2 m/S 647 mmHg 62%
    06:00 +17°C° 0 mm 2 m/S 648 mmHg 57%
    07:00 +19°C° 0 mm 2 m/S 648 mmHg 52%
    08:00 +20°C° 0 mm 3 m/S 649 mmHg 48%
    09:00 +24°C° 0 mm 3 m/S 650 mmHg 41%
    10:00 +26°C° 0 mm 3 m/S 650 mmHg 34%
    11:00 +29°C° 0 mm 3 m/S 650 mmHg 27%
    12:00 +30°C° 0 mm 2 m/S 650 mmHg 24%
    13:00 +32°C° 0 mm 2 m/S 650 mmHg 22%
    14:00 +34°C° 0 mm 1 m/S 649 mmHg 19%
    15:00 +32°C° 0 mm 1 m/S 649 mmHg 20%
    16:00 +31°C° 0 mm 1 m/S 648 mmHg 21%
    17:00 +30°C° 0 mm 1 m/S 648 mmHg 22%
    18:00 +28°C° 0 mm 2 m/S 648 mmHg 26%
    19:00 +26°C° 0 mm 2 m/S 648 mmHg 29%
    20:00 +24°C° 0 mm 3 m/S 648 mmHg 32%
    21:00 +22°C° 0 mm 3 m/S 647 mmHg 37%
    22:00 +21°C° 0 mm 3 m/S 647 mmHg 42%
    23:00 +20°C° 0 mm 3 m/S 647 mmHg 47%
    Mehr zeigen